Weather History for Langley AFB, VA

Change the Weather History Date:

Friday, October 5, 2012

  Actual Average Record
Temperature  
Mean Temperature 70 °F -  
Max Temperature 79 °F 72 °F 95 °F (1941)
Min Temperature 63 °F 55 °F 37 °F (1965)
Cooling Degree Days 6    
Growing Degree Days 20 (Base 50)    
Moisture  
Dew Point 58 °F    
Average Humidity 72    
Maximum Humidity 100    
Minimum Humidity 29    
Precipitation  
Precipitation 0.00 in - - ()
Sea Level Pressure  
Sea Level Pressure 30.11 in    
Wind  
Wind Speed 4 mph (WNW)    
Max Wind Speed 10 mph    
Max Gust Speed -    
Visibility 7 miles    
Events      
Averages and records for this station are not official NWS values.
T = Trace of Precipitation, MM = Missing Value Source: NWS Daily Summary

Daily Weather History Graph

Daily Weather History Graph

Search for Another Location

Airport:

Trip Planner

Search our weather history database for the weather conditions in past years. The results will help you decide how hot, cold, wet, or windy it might be!

Date:

Astronomy

Oct. 05, 2012 Rise Set
Actual Time 7:04 AM EDT 6:42 PM EDT
Civil Twilight 6:38 AM EDT 7:08 PM EDT
Nautical Twilight 6:08 AM EDT 7:38 PM EDT
Astronomical Twilight 5:38 AM EDT 8:08 PM EDT
Moon 10:10 PM EDT (10/5) 12:04 PM EDT (10/5)
Length of Visible Light 12h 29m
Length of Day
11h 37m
Waning Gibbous, 74% of the Moon is Illuminated
Oct 5
Waning Gibbous
Oct 8
Last Quarter
Oct 15
New
Oct 21
First Quarter
Oct 29
Full

Hourly Weather History & Observations

Time (EDT) Temp. Dew Point Humidity Pressure Visibility Wind Dir Wind Speed Gust Speed Precip Events Conditions
12:55 AM 66.7 °F 66.7 °F 100% 30.14 in 7.0 mi SW 5.8 mph - N/A   Partly Cloudy
1:55 AM 67.6 °F 67.6 °F 100% 30.14 in 6.0 mi West 4.6 mph - N/A   Mostly Cloudy
2:55 AM 67.5 °F 67.5 °F 100% 30.13 in 5.0 mi Calm Calm - N/A   Clear
3:15 AM 68.0 °F 68.0 °F 100% 30.13 in 4.0 mi Calm Calm - N/A   Clear
3:33 AM 68.0 °F 68.0 °F 100% 30.13 in 1.2 mi Calm Calm - N/A   Clear
3:55 AM 67.1 °F 67.1 °F 100% 30.13 in 1.2 mi WNW 3.5 mph - N/A   Clear
3:57 AM 66.2 °F 66.2 °F 100% 30.13 in 0.8 mi WNW 3.5 mph - N/A   Clear
3:58 AM 66.2 °F 66.2 °F 100% 30.13 in 0.8 mi WNW 3.5 mph - N/A   Clear
4:01 AM 66.2 °F 66.2 °F 100% 30.13 in 0.8 mi WNW 4.6 mph - N/A   Clear
4:02 AM 66.2 °F 66.2 °F 100% 30.13 in 1.0 mi WNW 4.6 mph - N/A   Clear
4:09 AM 66.2 °F 66.2 °F 100% 30.13 in 3.0 mi WNW 4.6 mph - N/A   Partly Cloudy
4:55 AM 66.9 °F 66.9 °F 100% 30.14 in 8.0 mi WNW 4.6 mph - N/A   Clear
5:10 AM 66.2 °F 66.2 °F 100% 30.14 in 9.0 mi NW 3.5 mph - N/A   Scattered Clouds
5:55 AM 67.5 °F 63.1 °F 86% 30.15 in 10.0 mi NNW 3.5 mph - N/A   Mostly Cloudy
6:55 AM 65.5 °F 60.1 °F 83% 30.14 in 10.0 mi Calm Calm - N/A   Partly Cloudy
7:55 AM 63.7 °F 59.4 °F 86% 30.15 in 10.0 mi Calm Calm - N/A   Clear
8:55 AM 67.8 °F 59.2 °F 74% 30.15 in 10.0 mi Calm Calm - N/A   Clear
9:55 AM 71.2 °F 53.4 °F 53% 30.16 in 10.0 mi NW 3.5 mph - N/A   Clear
10:55 AM 74.7 °F 47.7 °F 38% 30.16 in 10.0 mi Variable 6.9 mph - N/A   Clear
11:55 AM 77.4 °F 43.0 °F 29% 30.14 in 10.0 mi North 9.2 mph - N/A   Clear
12:55 PM 77.9 °F 46.2 °F 33% 30.12 in 10.0 mi NNE 6.9 mph - N/A   Clear
1:55 PM 78.6 °F 47.7 °F 34% 30.09 in 10.0 mi ENE 8.1 mph - N/A   Clear
2:55 PM 76.6 °F 44.4 °F 32% 30.07 in 10.0 mi ENE 10.4 mph - N/A   Clear
3:55 PM 78.3 °F 44.4 °F 30% 30.06 in 10.0 mi ENE 6.9 mph - N/A   Partly Cloudy
4:55 PM 77.2 °F 42.8 °F 29% 30.05 in 10.0 mi East 5.8 mph - N/A   Clear
5:55 PM 76.1 °F 43.7 °F 31% 30.04 in 10.0 mi SE 5.8 mph - N/A   Clear
6:55 PM 73.0 °F 47.7 °F 40% 30.04 in 10.0 mi ESE 4.6 mph - N/A   Clear
7:55 PM 66.7 °F 54.5 °F 65% 30.04 in 10.0 mi ESE 4.6 mph - N/A   Clear
8:55 PM 69.1 °F 55.6 °F 62% 30.04 in 10.0 mi SSE 6.9 mph - N/A   Clear
9:55 PM 66.2 °F 56.7 °F 71% 30.05 in 10.0 mi South 6.9 mph - N/A   Clear
10:55 PM 67.1 °F 56.3 °F 68% 30.04 in 10.0 mi South 6.9 mph - N/A   Clear
11:55 PM 66.7 °F 57.0 °F 71% 30.03 in 10.0 mi SSW 8.1 mph - N/A   Clear